Wind_Speed
42 42 42 41 41 42 42 43 43 44 44 44 44 45 45 44 43 43 44 44 44 45 45 46 46 47 47 48 48 49 50 51 52 53 54 55 56 57 58 59 60 61 61 62 63 64 65 65 65 65 65 66 67 69 71 72 73 74 75 76 76 78 79 81 82 83 85 86 87 86 86 85 84 84 83 83 83 83 84 86 87 88 89 89 90
43 43 43 42 43 43 43 44 44 44 44 45 45 45 45 44 44 44 44 44 44 44 45 46 46 47 47 48 49 50 51 53 54 55 56 57 58 59 60 61 61 61 61 62 63 64 65 65 66 66 66 67 69 72 73 74 75 76 77 77 79 80 82 82 83 84 86 86 87 87 87 86 85 84 84 83 83 84 85 87 88 89 89 89 90
45 44 44 43 43 43 43 43 44 44 45 46 47 46 46 45 45 44 44 43 43 43 44 45 45 46 47 48 49 51 52 54 55 56 57 58 59 60 61 61 61 62 63 64 64 65 65 66 66 67 68 70 72 74 75 77 77 78 78 79 81 83 84 84 85 85 86 87 87 87 87 85 84 84 84 84 84 85 86 87 88 89 89 89 90
45 44 44 44 44 44 44 44 45 46 47 48 48 48 47 46 46 44 43 42 42 42 43 44 45 45 47 48 50 51 53 54 55 56 58 60 61 61 62 62 62 63 64 65 65 65 65 67 68 69 70 72 75 77 78 79 79 80 80 82 84 85 85 85 85 87 87 88 88 87 85 83 83 83 84 85 85 86 86 87 88 88 89 89 90
44 44 44 44 44 44 44 45 46 47 47 48 48 48 47 46 45 44 43 42 42 42 43 44 45 45 47 48 50 52 53 55 56 58 60 61 61 61 62 62 63 64 65 65 65 66 67 68 70 71 73 75 77 79 80 81 81 82 83 84 85 85 85 85 86 88 89 88 87 85 83 82 82 83 84 85 85 86 87 87 88 88 88 88 88
44 43 42 42 41 42 43 43 44 44 45 45 45 45 44 44 44 44 43 43 43 43 44 44 45 46 47 49 50 52 54 57 59 60 61 61 61 62 63 64 65 65 65 65 66 68 70 71 73 75 76 77 78 80 81 82 82 83 85 85 85 85 85 86 87 88 88 87 85 83 82 81 81 82 84 85 85 86 86 86 87 87 87 86 86
41 40 39 38 38 39 40 40 40 40 40 40 41 41 42 42 42 42 43 43 44 44 45 45 45 47 48 49 52 54 57 58 60 61 61 61 61 62 64 65 65 65 65 66 68 70 72 74 76 77 78 78 80 81 82 83 84 85 86 85 85 85 85 86 87 88 87 85 84 82 80 80 81 82 84 84 85 85 85 85 85 85 85 83 82
39 38 37 37 37 38 38 38 37 37 37 38 38 39 40 40 41 41 43 44 45 45 45 46 47 48 49 51 54 57 58 59 61 63 63 62 63 64 65 66 65 65 65 67 69 71 74 76 77 78 78 79 81 82 83 84 85 85 85 85 85 85 86 87 87 86 84 83 81 79 78 79 81 82 83 84 84 84 84 84 84 84 83 82 80
39 38 38 38 37 37 37 37 37 37 37 37 38 39 39 40 40 41 43 44 45 46 46 47 48 49 50 53 55 57 59 60 63 64 63 62 63 64 64 65 65 66 67 69 71 74 76 78 78 79 80 81 82 84 84 85 85 85 84 84 85 86 87 86 84 82 80 79 78 77 77 79 81 82 83 84 84 83 83 83 82 82 81 80 78
40 39 39 38 38 37 37 37 37 37 37 37 38 39 40 40 41 41 43 44 45 47 48 48 48 50 51 53 56 59 61 63 64 63 62 62 64 64 64 65 66 68 70 72 74 76 78 79 79 80 81 82 83 84 84 84 84 84 84 85 86 86 85 82 79 77 77 77 76 77 78 80 81 82 83 83 83 83 82 82 81 80 80 78 75
40 39 39 38 37 37 36 36 36 37 37 38 38 39 39 40 41 42 43 44 46 47 48 48 49 51 53 55 58 61 62 63 64 64 63 64 65 65 65 66 67 68 69 71 74 76 78 79 80 81 82 83 83 83 83 84 84 85 86 86 85 83 80 77 75 75 76 77 77 78 80 81 81 83 83 82 83 82 81 81 80 78 77 75 72
41 40 39 38 37 37 36 36 37 37 37 38 38 39 39 40 41 42 44 45 46 47 48 49 50 52 53 55 57 58 59 61 61 61 62 62 63 64 65 66 67 67 68 70 72 74 77 79 80 81 82 83 83 83 84 85 85 86 85 83 81 78 75 73 73 75 77 78 78 79 81 81 82 83 82 82 82 82 81 79 78 76 75 74 72
41 40 39 38 38 38 38 38 38 38 39 39 39 39 40 41 42 43 45 46 47 47 48 49 51 52 52 53 55 57 59 61 62 62 63 63 64 65 66 68 70 70 70 71 73 75 78 79 81 82 83 84 84 85 85 86 85 84 82 79 76 73 72 73 75 77 78 78 79 80 81 82 82 81 81 81 82 81 79 77 75 75 75 74 73
43 42 41 40 40 39 40 40 39 40 40 40 41 41 42 43 44 45 46 47 48 48 48 49 50 51 52 54 57 58 59 61 62 64 65 66 67 68 69 71 71 70 71 72 73 75 77 79 81 82 84 84 84 85 84 83 82 81 78 76 73 71 72 74 76 77 77 78 80 80 80 81 81 80 80 80 79 78 76 75 75 76 76 75 74
44 43 43 42 42 41 41 41 41 41 41 42 42 43 44 46 47 48 48 48 49 49 49 50 51 52 53 54 56 57 58 60 62 65 66 67 68 69 70 71 71 70 69 69 70 74 77 80 82 82 82 82 82 82 81 80 79 78 75 73 72 73 75 76 76 76 77 79 80 80 79 79 79 79 78 78 77 76 76 76 77 78 77 76 76
44 44 44 44 43 43 42 42 42 42 43 43 44 45 46 47 48 49 50 50 51 51 51 51 52 53 54 55 56 57 58 61 63 66 67 68 69 70 71 71 71 70 69 70 73 77 80 81 81 80 80 80 80 79 78 77 76 75 74 74 75 76 77 76 76 76 78 80 80 79 78 77 77 77 76 76 77 77 78 79 79 79 78 78 78
45 45 45 45 44 43 43 43 43 44 44 44 44 45 46 48 49 50 51 52 53 53 54 54 54 55 56 58 59 60 62 64 66 68 69 69 69 69 69 70 71 73 75 77 78 78 78 78 78 78 78 77 76 76 75 75 75 75 75 76 77 78 76 74 75 78 80 81 80 79 78 77 77 78 78 79 80 80 81 82 81 80 81 80 79
47 46 46 45 45 44 44 44 44 44 44 44 45 46 48 49 51 52 53 54 55 56 57 58 58 59 60 61 63 65 67 68 68 68 68 68 69 70 72 74 76 78 79 79 78 77 77 77 77 77 75 74 73 74 75 75 76 76 77 77 78 77 75 73 76 78 79 79 79 79 79 79 80 82 82 82 82 84 85 85 83 83 84 83 81
48 47 47 46 45 45 46 45 45 44 45 45 47 48 50 51 53 54 55 56 57 59 60 61 62 63 64 66 67 68 68 68 68 69 70 72 74 75 76 77 78 78 78 78 78 77 76 75 74 73 72 72 73 74 75 76 76 77 77 78 78 75 73 74 78 78 78 79 79 80 81 82 83 85 85 85 85 86 88 88 87 87 87 85 84
49 48 47 46 47 46 46 46 46 46 47 47 48 50 52 54 55 57 58 59 60 62 63 64 65 66 67 68 69 70 70 71 72 74 75 75 75 76 76 77 77 77 77 77 77 74 72 70 70 71 72 74 75 75 76 77 77 77 77 77 76 75 75 77 79 79 80 81 81 82 83 84 85 85 86 86 87 87 89 90 90 89 88 86 84
50 49 48 47 47 46 46 47 47 48 48 49 51 53 55 56 58 59 61 62 63 64 65 66 67 68 69 70 71 72 73 74 75 75 75 75 76 76 76 75 75 75 74 72 71 69 69 70 72 73 74 75 75 75 75 75 76 76 76 75 76 77 78 80 81 82 83 84 84 85 86 86 87 87 87 87 88 88 89 90 90 89 87 84 82
51 50 49 48 47 48 48 49 49 49 50 51 53 55 57 59 60 62 63 64 65 66 67 68 68 69 70 71 72 73 74 75 75 75 74 73 72 71 70 70 70 70 69 68 69 70 72 73 75 75 75 75 74 74 73 73 74 74 74 74 76 78 80 81 82 84 85 86 86 87 88 88 88 88 88 88 89 89 89 89 88 86 83 81 80
52 51 50 50 50 50 50 51 51 51 52 53 55 57 59 61 62 64 65 66 66 67 68 68 69 70 71 72 73 73 74 73 72 71 69 67 65 66 66 67 68 69 70 71 73 75 76 77 77 77 76 75 74 73 73 73 73 74 75 76 78 80 82 84 84 86 87 89 89 89 89 89 89 89 89 89 88 87 86 85 83 81 80 79 79
53 52 51 51 51 51 52 52 53 53 54 55 57 59 61 62 64 65 66 67 68 69 70 70 71 71 72 72 72 72 72 70 68 67 66 65 66 68 70 72 73 75 76 76 77 78 78 78 77 76 75 74 73 73 73 74 75 76 78 79 81 83 84 86 87 88 90 91 92 92 91 91 91 91 90 88 86 84 82 80 78 77 77 77 76
53 52 52 52 53 54 54 55 55 56 57 58 59 61 63 64 66 67 69 70 71 72 72 71 71 70 70 70 70 69 69 67 66 66 66 67 68 70 72 74 75 76 76 76 76 76 75 75 73 72 72 72 73 74 75 76 78 79 81 82 84 85 86 88 89 90 92 93 94 94 94 93 93 92 90 86 83 80 78 77 75 74 73 73 73
53 52 53 54 55 56 56 56 57 58 59 60 62 64 65 67 69 70 71 72 72 71 70 70 69 69 69 68 68 67 66 66 65 66 66 67 69 70 71 72 73 73 73 73 73 73 72 71 71 71 72 73 74 76 77 78 80 81 83 84 86 87 89 90 92 93 94 95 95 96 95 94 91 89 86 82 79 77 76 75 73 72 71 71 71
53 53 54 56 57 57 58 58 59 60 61 63 64 66 67 68 69 69 69 69 68 68 68 68 68 68 68 68 67 67 67 67 66 67 67 68 69 69 70 70 71 71 70 70 70 70 70 70 70 71 72 74 75 77 78 80 81 82 84 86 87 89 90 92 94 96 97 97 98 97 95 92 89 85 82 79 77 76 75 75 73 72 70 70 69
53 54 56 57 58 58 59 60 60 61 62 63 64 65 65 66 66 66 66 66 66 66 67 67 67 67 67 67 68 68 68 68 67 67 68 68 68 68 68 68 68 67 67 67 68 68 69 69 70 71 73 74 76 78 79 81 82 83 85 87 88 90 92 94 96 97 98 99 98 96 93 89 86 83 80 79 78 76 75 75 74 72 70 69 69
54 56 57 58 58 58 58 59 59 60 61 61 62 63 63 64 64 64 65 65 65 66 66 66 67 67 68 68 68 67 67 67 66 66 66 66 66 66 65 65 65 65 65 66 66 67 68 69 70 72 74 75 77 78 80 81 82 83 85 87 89 92 94 96 97 98 98 98 96 92 89 86 84 82 81 80 78 77 76 75 73 72 70 69 68
55 57 57 56 56 56 56 57 58 59 59 60 61 62 63 63 64 64 65 65 65 66 67 67 67 67 67 66 66 65 65 65 64 64 64 64 64 63 63 63 63 64 64 65 66 67 68 69 71 73 74 75 77 78 79 81 82 83 85 88 90 93 95 96 97 97 95 93 91 89 87 85 84 83 81 80 78 77 75 74 72 71 70 68 67
54 54 54 54 54 55 55 56 57 58 59 60 61 62 63 64 65 65 66 66 67 67 67 67 66 65 64 64 64 63 63 63 63 63 62 62 62 61 61 62 62 63 64 65 66 67 68 70 72 73 74 76 77 78 80 81 83 85 88 90 92 94 96 96 95 93 90 88 87 87 86 85 84 83 81 79 77 76 74 72 71 70 69 68 66
52 52 52 53 54 55 56 57 58 59 60 61 62 63 64 65 66 66 67 67 67 66 65 64 64 63 62 62 63 63 63 62 62 61 61 60 60 60 61 61 62 63 64 66 67 69 70 72 73 74 75 77 78 80 82 83 85 88 90 92 94 95 95 94 91 89 87 86 86 86 85 84 83 81 79 77 76 74 72 71 70 69 68 67 66
51 52 53 55 56 56 57 58 59 60 62 63 63 64 65 65 65 65 65 65 64 63 63 62 62 62 62 62 62 62 62 61 60 60 60 60 60 61 61 62 63 64 65 67 69 70 72 73 74 76 77 79 80 82 84 86 88 90 92 94 95 95 93 90 88 86 86 86 85 85 83 82 80 79 77 75 73 72 70 69 68 68 67 67 66
53 55 56 57 58 58 59 60 61 62 63 63 64 64 64 64 63 63 63 62 62 62 62 62 62 62 62 62 62 61 60 60 60 59 59 60 61 62 62 63 64 65 67 68 69 70 72 73 75 77 79 81 82 84 86 88 90 92 94 95 95 93 90 87 86 86 86 85 84 83 81 79 78 75 74 72 71 69 68 67 67 66 66 66 66
56 57 58 59 59 60 61 61 62 62 63 63 63 62 62 62 62 62 62 62 62 62 62 62 62 62 62 62 61 60 60 60 59 59 60 61 62 63 63 64 65 66 67 68 69 71 72 74 76 78 80 82 84 86 87 90 92 94 95 95 93 89 87 86 85 85 84 83 81 80 78 76 74 72 70 69 68 66 65 65 64 64 64 64 65
58 59 60 60 61 61 61 62 62 62 61 61 61 61 61 61 61 62 62 62 63 63 63 62 62 62 61 60 60 60 60 60 60 60 61 62 62 63 63 64 64 65 66 68 70 72 73 75 77 79 81 83 85 87 89 91 93 94 94 92 89 86 85 85 85 84 82 80 78 76 74 72 70 68 67 65 64 63 63 62 61 61 61 61 62
60 60 60 61 61 61 61 61 61 60 60 60 60 60 61 62 62 62 62 62 63 62 62 62 61 61 60 59 59 59 59 60 60 61 61 62 62 62 62 63 64 65 67 69 71 73 75 76 78 80 83 85 86 88 90 92 94 93 91 88 85 84 84 84 83 82 80 77 75 72 70 68 67 65 64 62 61 61 60 59 59 58 58 58 59
59 60 60 60 60 60 60 60 60 59 60 60 61 61 62 62 62 62 62 62 62 61 61 61 60 59 59 59 59 59 60 60 61 61 61 61 61 61 62 63 64 66 68 70 72 74 76 78 79 82 84 85 87 89 91 93 93 90 87 84 84 84 83 82 81 79 77 74 71 69 67 65 63 61 60 58 57 56 56 55 55 54 54 54 55
59 59 59 60 60 60 60 60 60 60 61 61 61 61 61 61 61 61 61 61 61 61 60 60 59 58 59 59 60 60 60 61 61 61 61 61 61 62 63 64 65 67 69 71 74 76 77 79 81 83 85 86 88 90 92 92 89 86 83 83 83 82 81 80 77 75 73 70 67 65 63 60 58 56 55 53 52 51 51 51 51 51 52 52 53
58 58 59 59 60 60 60 61 61 61 61 60 60 60 60 60 60 60 60 60 60 60 59 59 58 59 59 60 60 60 61 61 61 61 61 61 62 63 64 65 67 69 71 73 76 77 79 80 82 84 85 87 89 91 91 89 85 82 81 81 81 80 78 76 73 70 68 65 63 60 57 55 53 52 51 50 50 50 50 50 51 51 51 51 52
58 59 59 60 60 60 60 60 60 59 59 59 58 58 59 60 60 60 60 60 60 59 59 58 59 59 59 60 60 61 61 60 60 61 61 62 63 65 66 67 69 71 73 75 77 79 80 82 83 85 86 88 90 91 89 85 82 80 80 80 79 77 75 72 69 66 63 60 57 55 52 51 50 50 50 50 50 50 50 49 48 48 48 48 49
57 58 58 58 58 58 58 57 57 57 58 58 58 59 60 60 60 60 60 60 59 59 58 58 59 59 59 59 60 60 60 60 61 61 62 64 65 66 67 69 71 73 75 77 79 80 81 83 84 85 87 89 90 89 86 82 80 79 79 78 76 74 71 68 65 62 58 56 53 51 50 49 49 49 49 49 48 47 46 45 45 45 46 47 48
54 54 54 55 55 55 56 56 56 57 58 59 59 60 60 60 60 60 60 59 59 58 58 59 59 59 59 60 60 61 61 61 62 63 64 65 66 68 69 71 73 75 77 78 80 81 82 84 85 86 87 89 89 87 83 80 79 79 77 76 74 71 67 64 61 58 55 52 51 50 49 49 48 47 46 45 43 42 42 42 43 45 46 48 49
51 52 53 54 54 55 55 56 57 58 59 59 60 60 60 60 60 60 59 59 58 58 59 59 59 59 60 61 62 62 63 63 64 64 65 67 68 69 71 73 75 77 78 79 80 82 83 84 85 86 88 89 88 85 81 79 78 77 75 73 70 67 64 60 57 54 52 50 50 49 49 47 45 44 42 40 39 39 40 42 44 45 47 48 49
50 52 53 54 55 56 56 57 58 59 59 59 59 60 60 59 59 59 59 58 59 59 60 60 60 61 62 63 64 64 64 65 65 66 67 68 69 71 72 74 76 78 79 80 81 83 84 85 85 87 89 89 87 83 80 78 77 75 72 69 66 63 60 57 54 52 50 49 49 48 46 44 42 40 39 37 38 38 40 42 44 45 46 47 48
51 53 54 55 56 57 58 58 59 59 59 59 60 60 59 59 59 59 59 59 60 60 60 60 61 62 64 64 65 65 66 66 67 68 69 70 71 72 74 76 78 79 80 81 82 83 84 84 85 87 89 89 86 81 79 77 75 73 70 66 62 59 57 54 52 50 49 48 47 46 44 41 39 38 37 36 37 38 40 42 43 44 45 45 46
52 54 55 57 58 58 59 59 59 59 59 59 59 59 59 59 59 59 59 60 60 61 61 62 63 64 65 65 66 67 67 68 69 70 70 71 73 74 76 78 79 80 81 82 83 84 84 85 85 87 89 88 84 80 77 75 73 70 67 63 59 56 54 52 50 49 47 46 45 43 41 39 37 36 36 36 37 38 39 41 42 43 43 43 43
54 55 57 58 59 59 59 59 59 59 59 59 59 59 59 59 59 59 60 61 61 61 62 64 65 66 66 67 67 68 69 70 71 71 72 74 75 76 77 79 80 81 82 83 84 84 84 85 86 88 89 87 82 79 76 74 71 67 64 60 56 54 52 50 49 47 46 45 43 41 38 37 36 36 35 36 36 37 38 40 41 41 41 41 41
56 57 58 59 59 59 59 59 59 59 59 59 59 59 59 59 60 60 61 61 62 63 64 66 67 67 68 68 69 70 71 72 73 73 74 75 76 77 79 80 81 82 83 84 84 85 85 85 87 88 88 85 80 77 74 71 68 65 61 57 54 52 50 49 47 46 44 43 42 39 37 36 35 35 35 35 36 36 37 38 39 39 39 39 38
57 58 59 59 59 59 59 59 59 59 60 60 60 59 59 60 60 61 62 63 64 65 66 68 68 68 69 69 71 72 72 73 74 75 76 77 78 79 80 81 82 83 84 84 85 85 85 86 87 88 86 82 78 74 72 69 65 62 59 55 52 50 49 47 46 45 43 42 40 38 36 35 35 35 35 35 35 34 35 37 37 37 36 36 35
58 58 58 58 58 58 58 59 59 60 60 60 60 60 60 60 61 62 63 64 65 67 68 69 69 69 70 71 72 73 74 75 76 77 77 78 79 80 82 82 83 84 84 84 85 86 86 87 87 86 83 79 75 72 69 66 63 60 57 54 51 49 47 46 45 44 42 41 39 37 35 34 34 34 34 34 34 33 33 34 35 35 33 32 31
Wind_Direction
280 280 281 281 281 281 280 280 281 281 282 282 282 283 283 282 281 281 282 282 283 283 282 282 282 282 282 282 283 283 282 282 282 282 282 283 283 283 284 284 285 286 288 289 291 292 293 294 295 296 297 297 297 298 299 300 300 300 301 301 302 303 304 303 303 304 304 304 305 305 306 306 305 305 305 305 306 307 308 309 310 310 310 311 311
278 278 279 280 279 279 280 280 281 282 282 283 283 283 283 282 281 281 281 281 281 282 282 282 282 283 283 283 283 283 282 282 282 282 282 282 282 283 283 283 285 286 288 290 292 293 294 295 295 296 297 297 298 299 299 299 299 299 300 301 302 303 302 302 303 303 303 303 304 304 304 304 304 304 305 305 306 308 308 309 310 310 311 311 311
275 276 277 278 278 278 279 280 281 282 283 283 284 284 283 282 282 281 280 280 280 281 282 282 283 283 283 283 283 283 282 282 281 282 282 282 281 281 282 283 285 287 289 291 293 294 295 295 296 296 297 297 298 298 297 297 297 298 299 300 301 301 301 301 301 301 302 303 303 303 303 303 303 304 304 305 306 307 308 309 310 310 311 311 311
275 277 278 278 278 279 279 279 280 281 282 283 283 284 284 283 283 283 282 281 281 281 282 282 283 283 284 284 283 282 281 281 281 281 281 280 280 281 283 285 287 289 290 292 293 294 295 295 295 295 296 296 295 295 294 295 296 297 298 299 299 299 299 300 300 301 301 302 302 301 302 302 303 303 304 305 306 307 308 309 309 310 310 310 311
278 280 280 280 279 279 279 279 279 279 280 281 282 283 284 284 285 285 284 283 282 282 282 282 283 283 284 284 283 282 282 282 282 281 280 280 282 283 285 287 288 290 291 292 293 295 294 294 294 294 293 293 292 293 293 294 295 296 296 296 296 297 298 299 300 300 300 300 300 301 301 302 303 303 304 305 306 306 307 308 308 309 309 310 310
279 279 279 278 278 278 278 278 278 278 279 280 281 282 283 284 285 285 284 284 283 282 282 282 283 283 284 284 284 284 283 282 281 281 282 283 284 286 287 288 289 290 291 293 294 294 293 293 292 291 290 291 291 292 292 293 294 295 295 295 295 296 297 298 299 299 299 300 300 300 301 301 302 303 303 304 305 306 306 307 308 308 309 310 310
279 279 278 277 277 278 278 278 278 278 278 278 278 279 281 281 282 283 283 283 282 282 282 282 282 283 284 285 285 284 283 283 283 283 284 284 286 287 287 288 289 290 292 293 293 293 292 291 290 289 289 290 291 291 291 292 293 293 293 294 294 296 297 297 298 298 299 299 299 299 300 301 301 301 302 303 304 305 306 307 308 308 309 309 309
281 281 280 279 279 279 279 279 279 279 278 278 278 278 278 279 280 281 281 281 282 281 281 281 282 283 284 285 285 284 284 285 284 283 282 283 284 285 286 287 289 290 292 293 293 292 290 288 288 289 289 290 289 290 290 291 292 292 292 293 294 296 296 297 297 298 298 298 298 298 299 300 300 300 302 303 304 305 306 307 308 308 308 308 308
283 282 281 281 280 280 281 281 282 282 281 280 279 279 279 279 280 280 281 282 283 283 283 283 283 283 284 284 284 284 284 284 283 282 281 282 284 285 286 288 290 291 292 293 293 291 288 288 288 289 289 288 288 289 289 290 290 290 291 293 294 295 296 297 297 298 297 297 298 298 298 299 299 300 301 302 304 305 307 307 308 308 307 308 308
282 281 281 281 282 282 282 283 283 283 283 282 281 281 281 281 282 283 284 285 285 286 286 285 285 284 284 284 285 285 285 285 284 282 282 283 285 286 287 289 291 292 293 293 292 290 289 289 288 288 288 287 287 287 288 288 289 290 292 293 295 295 296 297 298 297 297 297 297 297 298 299 299 300 301 303 305 306 307 307 307 307 307 308 308
281 280 280 281 281 282 281 282 283 283 282 282 282 282 283 284 285 285 285 286 286 286 287 287 287 287 287 287 288 288 288 288 287 285 283 284 286 287 289 291 292 293 294 294 293 292 291 289 288 287 286 286 286 287 287 288 289 291 293 294 295 296 296 297 297 297 296 296 297 297 298 299 300 301 303 305 306 306 307 306 307 307 308 309 309
279 279 280 280 280 280 280 281 281 281 281 281 282 283 285 286 286 285 285 284 285 285 285 285 285 285 286 287 288 289 289 289 288 287 286 287 288 289 290 290 291 292 293 293 293 292 290 287 286 285 285 285 286 287 287 289 290 292 293 294 295 296 297 297 296 295 295 296 297 298 299 300 302 304 305 305 305 306 306 306 307 308 309 310 309
278 278 279 279 280 281 281 281 282 282 282 282 284 285 287 288 288 287 286 286 286 285 284 283 283 284 285 286 287 287 288 288 288 288 288 289 288 289 289 290 291 292 293 292 291 288 286 285 284 284 285 286 287 288 289 290 291 292 293 294 295 296 295 295 295 295 296 298 299 300 301 303 304 306 305 305 305 306 306 307 308 309 310 310 308
278 278 279 280 280 281 282 282 283 282 283 284 286 288 290 291 291 290 289 288 287 287 285 284 283 284 284 284 284 285 286 287 288 288 288 288 288 289 290 291 293 293 292 290 288 287 286 285 285 286 286 287 288 289 290 290 291 292 293 294 294 294 293 294 295 297 298 300 301 302 304 305 305 305 305 305 306 307 308 309 309 309 310 309 307
277 277 278 279 281 281 282 282 282 282 284 286 288 291 292 293 292 291 290 289 287 286 285 283 282 282 282 282 282 283 284 285 285 285 286 287 287 287 288 290 291 290 288 287 287 286 285 285 286 287 288 289 290 290 289 290 291 292 293 293 293 293 294 295 297 298 300 301 302 304 305 305 305 305 305 306 307 308 308 309 309 309 309 307 306
275 276 277 279 280 281 281 281 282 284 286 288 290 291 292 292 291 290 289 288 286 285 284 282 281 281 281 281 282 283 283 283 283 283 284 285 286 287 287 287 287 285 284 284 284 284 285 286 287 288 289 289 288 288 288 290 291 292 292 292 292 293 295 297 299 300 300 301 303 304 305 305 305 306 307 307 308 308 307 308 308 308 306 305 305
274 275 277 278 279 279 280 281 284 286 287 288 290 290 290 290 289 288 287 286 285 284 283 282 282 281 281 281 282 283 284 284 284 285 287 288 288 287 286 284 284 284 284 285 285 287 288 288 288 287 287 287 287 288 289 290 291 291 292 293 294 296 299 300 300 301 302 303 304 305 305 306 307 307 308 308 308 307 306 307 307 306 305 304 303
274 275 276 277 277 278 279 282 284 285 286 288 288 288 288 288 286 286 285 285 284 283 283 283 283 283 284 284 285 286 286 287 287 287 286 285 284 283 283 284 284 284 285 286 288 289 288 287 286 286 286 286 287 288 289 290 291 293 294 295 297 300 302 302 301 303 304 304 306 306 307 308 308 307 307 307 306 305 305 305 305 304 304 303 302
274 274 275 275 276 277 280 282 283 284 286 287 287 287 286 285 284 284 284 284 283 283 283 283 284 285 286 287 288 289 288 287 286 284 283 282 282 283 283 283 284 285 286 288 289 288 286 285 285 285 285 286 287 288 290 292 294 296 297 299 301 303 303 302 303 305 305 305 306 307 307 307 307 307 307 306 305 305 304 304 304 303 303 302 301
273 273 274 274 276 278 279 280 282 284 285 286 286 285 285 284 284 284 283 283 283 283 284 285 286 287 288 290 291 291 289 288 287 286 285 285 284 284 284 284 286 286 286 286 285 284 283 283 284 285 286 288 289 291 294 296 297 300 302 303 304 304 304 304 305 305 305 306 306 306 306 306 306 306 305 305 305 304 303 303 303 302 302 301 300
272 273 274 275 276 277 278 280 282 284 285 285 285 284 283 283 283 283 283 284 284 284 285 286 288 289 290 291 291 291 290 289 288 287 286 285 285 285 285 285 285 283 283 282 282 282 283 283 284 286 289 291 294 296 298 300 302 303 305 305 305 304 304 304 305 305 305 305 305 305 305 305 305 304 304 304 304 303 302 301 301 301 300 299 297
271 272 273 274 275 277 278 281 283 284 284 284 284 283 283 283 283 284 284 285 285 286 287 288 289 289 290 290 290 290 289 288 287 286 286 286 285 285 283 282 281 280 281 282 282 282 283 285 287 290 293 296 298 301 302 303 304 304 305 304 304 304 304 304 304 304 304 304 305 305 305 304 304 304 303 303 303 302 301 300 300 299 297 296 294
270 270 272 273 274 276 278 281 283 283 283 283 283 283 283 283 283 283 284 285 285 286 287 288 289 289 289 289 289 288 287 286 286 286 285 284 283 281 280 280 280 281 282 282 283 285 287 289 291 294 296 299 300 302 302 303 303 304 304 304 304 304 304 304 304 304 304 304 304 304 304 304 304 303 303 303 302 301 300 299 299 297 295 294 293
269 269 270 272 275 277 280 282 283 283 283 283 283 283 283 283 283 284 284 284 285 286 287 288 289 289 288 288 287 286 286 285 284 283 282 281 279 279 279 280 280 282 283 284 286 288 290 292 294 296 298 299 300 301 301 302 302 303 303 303 304 304 304 304 304 304 304 304 305 304 304 304 304 303 303 303 302 301 300 299 298 296 294 293 292
268 268 270 273 277 279 281 283 283 284 284 284 284 285 285 285 285 285 285 286 287 288 288 289 289 288 287 286 286 285 285 284 283 282 281 279 279 278 279 280 281 283 284 286 288 290 292 294 296 298 299 299 299 300 300 301 302 303 303 304 304 304 305 305 304 304 304 305 305 305 305 304 304 304 304 303 302 301 300 299 297 296 294 293 292
266 267 271 275 278 280 281 282 283 284 285 285 285 285 285 285 285 286 287 287 288 289 289 289 288 287 286 285 285 284 283 283 282 281 280 280 280 280 282 283 285 286 288 290 292 293 295 296 297 298 298 298 299 300 301 302 303 304 304 305 305 305 305 305 304 304 305 305 305 305 305 305 305 304 304 303 302 300 299 298 297 295 294 292 291
265 268 273 277 280 281 282 283 283 284 285 285 285 285 285 286 286 287 287 288 288 288 288 288 287 286 285 285 284 283 282 282 282 281 281 282 283 284 285 287 288 290 291 292 293 294 295 296 297 298 299 300 301 302 303 304 305 305 305 305 305 305 305 305 305 305 305 305 305 305 305 305 304 304 303 302 301 300 298 297 296 295 293 292 291
267 272 277 280 281 282 282 283 284 284 285 285 286 286 286 286 287 287 287 287 287 287 286 286 285 284 284 283 283 283 283 283 283 284 284 285 287 288 289 290 291 292 293 294 294 295 296 297 299 300 301 302 304 305 305 306 306 306 306 305 305 305 305 305 305 306 306 306 306 306 305 305 304 304 303 301 300 299 298 296 295 294 293 291 291
271 277 279 281 281 282 283 283 284 285 285 285 286 286 286 286 286 286 286 285 285 285 284 284 284 283 283 283 284 284 284 285 286 287 287 288 289 290 291 292 292 293 294 295 296 297 298 300 301 303 304 305 306 306 306 306 306 306 306 305 305 305 305 306 306 306 306 306 306 305 305 304 304 303 302 300 299 298 297 295 294 293 292 291 290
276 278 279 280 281 282 283 284 285 285 285 286 286 285 285 285 285 285 285 284 284 284 284 284 284 284 284 285 285 286 287 287 288 289 290 290 291 292 292 293 294 295 296 297 298 300 301 303 304 305 306 306 306 306 306 306 306 305 305 305 305 305 306 307 307 307 306 306 305 305 304 304 303 302 301 299 298 297 296 294 293 292 291 290 289
277 278 279 280 282 284 285 286 286 286 286 285 285 284 284 284 284 284 284 284 284 284 284 284 284 285 286 287 287 288 289 289 290 291 291 292 292 293 293 294 295 297 298 299 301 302 303 304 305 306 306 306 306 306 306 305 305 305 305 305 306 306 307 307 307 306 306 305 305 304 304 303 302 301 300 298 297 296 294 293 292 291 290 289 288
277 278 280 283 284 285 286 286 286 285 284 284 283 283 283 283 283 283 283 283 283 283 284 285 286 286 287 288 289 290 290 291 291 291 292 292 293 293 295 296 297 299 300 301 303 304 304 305 306 306 306 306 306 306 306 306 305 305 306 306 307 307 308 307 307 306 305 305 305 304 303 303 302 301 299 298 296 295 294 292 291 290 289 288 288
279 281 284 285 286 286 286 285 284 283 283 282 282 282 282 283 283 283 283 283 284 284 285 286 287 288 289 290 290 291 291 291 291 291 292 292 293 295 296 298 299 300 302 303 304 305 306 306 307 307 307 307 307 307 307 306 306 306 307 308 308 308 308 307 307 306 306 305 305 304 303 302 301 300 299 298 296 295 294 292 291 290 289 288 287
282 284 285 285 284 284 283 283 282 282 281 281 282 282 282 283 283 283 284 285 286 286 287 288 289 290 290 291 291 291 290 291 291 291 292 293 295 296 298 299 301 302 303 305 306 307 307 308 308 308 308 308 308 308 308 307 307 308 309 309 309 309 308 307 307 307 306 306 305 304 303 302 301 300 299 298 296 295 294 293 291 290 290 289 288
282 282 282 282 282 281 281 281 281 281 281 281 282 282 283 283 284 285 286 286 287 288 289 289 290 290 290 290 290 290 290 290 291 292 293 295 296 298 299 301 302 304 305 306 307 308 308 309 309 309 309 309 309 309 309 309 309 310 310 310 310 309 308 308 308 307 307 306 305 304 303 302 301 300 299 298 297 296 295 293 292 292 291 290 289
281 280 280 280 279 279 279 280 280 281 281 282 282 283 284 284 285 286 287 288 288 289 289 290 290 290 289 289 289 289 290 290 292 293 295 296 298 299 301 302 303 305 306 308 308 309 309 310 310 310 310 310 310 310 310 310 310 311 311 310 310 309 308 308 308 308 307 306 306 305 304 302 301 300 299 298 297 296 295 294 293 293 292 291 291
278 278 277 277 277 278 279 280 281 282 282 283 283 284 285 285 286 287 287 288 289 289 289 289 289 289 288 288 289 289 290 291 293 295 296 298 299 300 302 303 304 306 307 308 309 310 310 310 310 310 311 311 310 310 311 311 312 312 311 310 310 309 309 309 309 308 308 307 306 305 304 303 302 300 299 298 297 296 295 295 294 294 293 292 291
276 276 276 277 278 279 280 281 282 283 283 284 285 285 286 287 287 288 288 288 289 289 289 288 288 288 288 288 289 290 291 293 294 296 297 299 300 301 302 303 305 306 308 309 310 310 310 310 310 311 311 311 311 311 312 312 313 312 311 310 310 310 310 310 309 309 308 307 306 305 304 304 302 301 300 299 298 297 296 296 295 294 293 293 292
276 276 276 277 279 280 281 282 283 283 284 285 286 286 287 288 288 288 288 288 288 288 288 287 287 287 288 288 289 291 292 294 296 297 298 299 300 300 301 303 305 306 308 309 310 310 310 310 311 311 311 311 312 312 313 313 313 312 311 311 311 311 311 310 310 309 308 308 307 306 306 305 304 303 302 301 300 299 298 297 296 295 295 294 293
276 276 277 279 280 281 282 283 284 285 285 286 287 287 288 288 288 288 288 287 287 287 287 287 287 287 288 289 290 292 294 295 296 297 298 299 299 300 302 303 305 307 309 310 310 311 311 311 311 312 312 312 313 314 314 314 313 312 311 312 312 311 311 310 310 309 309 308 308 307 306 306 305 304 304 302 301 300 299 298 298 297 297 296 295
277 278 279 281 282 283 283 284 285 285 286 287 288 288 288 287 287 287 286 286 286 286 286 286 286 287 288 290 292 293 295 295 296 297 298 299 300 301 303 304 306 308 309 310 310 311 311 311 312 312 312 313 314 315 315 314 313 312 312 312 312 312 311 311 310 310 309 308 307 307 306 306 305 304 303 302 301 301 301 301 301 301 300 299 298
280 281 282 282 283 284 284 285 285 286 287 287 287 287 286 286 285 285 285 285 285 285 285 286 287 288 289 291 292 293 294 295 295 296 298 299 300 302 304 305 307 308 309 310 310 311 311 312 312 312 313 315 316 316 315 314 313 313 313 313 312 312 311 311 310 310 309 308 307 307 306 306 305 304 303 303 303 303 304 304 304 304 303 302 301
282 283 283 284 284 285 285 285 286 286 286 285 285 285 284 284 284 284 284 284 284 284 285 286 287 289 290 291 292 293 293 294 295 296 298 299 301 303 304 306 307 308 309 310 310 311 311 312 312 313 314 316 317 316 315 314 314 314 314 313 313 312 311 311 310 309 309 308 308 308 308 307 306 305 305 305 306 306 307 307 308 307 306 305 304
284 284 285 285 285 285 285 285 285 284 284 283 283 283 283 283 283 283 283 283 283 284 285 286 287 289 290 291 292 292 293 294 295 297 298 300 301 303 304 306 307 308 309 309 310 311 311 312 312 313 315 317 317 316 315 315 315 314 314 313 312 311 311 310 310 309 309 309 309 309 309 308 307 307 307 307 308 309 310 310 310 310 309 308 306
285 285 285 285 285 285 284 284 283 283 283 282 283 282 282 283 283 282 282 283 283 284 285 286 287 289 290 291 292 292 293 295 296 297 299 300 301 303 304 305 306 307 308 309 310 311 311 312 312 314 316 318 318 316 315 315 315 314 313 313 312 311 310 310 309 309 309 310 310 311 310 309 308 308 308 309 310 311 313 313 313 312 311 311 310
287 286 285 285 284 284 283 283 283 283 282 282 282 282 282 282 282 282 282 282 283 284 285 286 287 289 290 291 292 293 294 295 297 298 299 300 301 303 304 305 306 307 308 309 309 310 311 312 313 315 317 318 317 316 315 315 314 313 313 312 311 310 310 310 309 309 310 311 311 311 310 309 308 309 309 310 311 313 315 316 316 315 315 315 316
287 286 285 284 283 283 283 282 282 282 282 282 282 282 282 281 281 281 281 282 283 284 285 287 288 290 291 292 293 294 295 296 297 298 299 300 301 302 303 304 305 306 308 309 310 310 311 312 313 315 317 318 317 315 314 314 313 313 312 311 310 310 309 309 309 309 310 311 311 311 309 308 308 309 309 310 312 315 317 319 319 319 319 320 321
288 286 285 284 283 283 282 282 282 281 281 281 281 281 281 281 280 280 281 282 283 285 286 288 289 291 292 292 293 294 295 296 297 298 298 299 300 301 303 304 305 307 308 309 310 310 311 312 314 316 317 317 315 314 313 313 312 311 310 310 309 309 308 308 308 308 310 311 311 309 308 307 308 309 309 310 313 316 319 321 322 322 323 325 326
288 286 285 284 283 282 282 282 281 281 281 281 281 280 280 280 280 281 282 283 285 286 288 289 290 291 292 293 294 295 296 296 297 298 298 299 300 301 303 304 306 307 308 309 309 310 311 312 314 316 316 315 314 313 312 312 311 310 309 308 308 307 307 307 307 308 309 310 309 308 307 307 308 309 309 310 312 316 320 322 324 325 326 327 329
287 285 284 283 283 282 282 282 281 281 281 280 280 280 279 280 281 282 283 285 286 287 289 290 291 292 293 294 295 295 296 297 297 297 298 299 300 302 304 305 306 308 308 309 309 310 311 312 314 315 315 314 312 311 311 310 309 308 307 306 306 306 306 306 306 306 308 308 308 306 305 305 306 307 308 309 311 315 319 322 325 326 328 329 330
286 284 283 283 282 282 281 281 281 280 280 280 280 280 280 281 282 283 284 286 287 289 290 291 292 293 294 295 296 296 297 297 297 297 298 299 301 303 304 306 307 307 308 308 309 310 311 312 313 314 313 312 310 310 309 308 307 306 305 304 304 304 305 304 304 305 306 307 306 305 304 304 305 306 307 308 310 314 317 322 325 327 329 330 331
Height
5763 5762 5761 5760 5759 5758 5756 5755 5754 5753 5752 5750 5749 5747 5746 5744 5742 5741 5740 5739 5738 5737 5736 5735 5734 5732 5731 5730 5729 5727 5726 5724 5723 5721 5720 5718 5717 5715 5713 5711 5709 5707 5705 5704 5702 5700 5698 5695 5693 5691 5688 5685 5681 5678 5674 5669 5666 5662 5659 5656 5654 5650 5646 5642 5638 5633 5629 5623 5619 5616 5613 5609 5606 5603 5599 5596 5592 5588 5582 5578 5573 5568 5562 5558 5554
5757 5756 5755 5754 5753 5752 5750 5749 5748 5747 5746 5744 5743 5741 5740 5738 5737 5735 5734 5733 5732 5731 5730 5729 5728 5727 5725 5724 5723 5721 5720 5718 5717 5715 5714 5712 5710 5708 5706 5704 5702 5701 5699 5697 5695 5693 5690 5688 5686 5683 5680 5677 5673 5669 5665 5661 5658 5655 5651 5648 5645 5642 5638 5634 5630 5626 5621 5616 5611 5607 5604 5601 5596 5594 5591 5587 5583 5578 5573 5568 5563 5558 5553 5548 5544
5750 5750 5749 5748 5747 5746 5744 5743 5742 5741 5739 5738 5736 5735 5734 5732 5730 5729 5728 5727 5726 5725 5724 5723 5722 5721 5720 5718 5717 5715 5714 5712 5710 5709 5707 5705 5704 5702 5700 5698 5696 5694 5692 5690 5687 5685 5683 5681 5678 5675 5672 5669 5665 5661 5657 5654 5650 5647 5644 5641 5637 5634 5630 5626 5623 5618 5613 5609 5604 5599 5595 5592 5588 5585 5582 5578 5574 5569 5564 5560 5555 5550 5544 5539 5535
5744 5744 5743 5742 5741 5739 5738 5737 5736 5734 5733 5731 5729 5728 5727 5726 5724 5723 5722 5721 5720 5719 5718 5717 5716 5715 5713 5712 5711 5709 5707 5705 5704 5702 5700 5698 5697 5695 5693 5691 5689 5687 5684 5682 5680 5678 5676 5673 5670 5668 5664 5660 5656 5653 5649 5646 5643 5640 5636 5633 5629 5626 5623 5619 5614 5610 5606 5602 5597 5591 5587 5583 5579 5576 5573 5569 5565 5561 5556 5552 5547 5542 5537 5532 5526
5738 5738 5737 5735 5734 5733 5732 5731 5729 5728 5726 5724 5723 5722 5721 5720 5718 5717 5716 5715 5714 5713 5712 5711 5710 5708 5707 5706 5704 5703 5701 5699 5697 5695 5693 5692 5690 5688 5687 5684 5682 5680 5677 5675 5673 5671 5668 5666 5663 5660 5656 5652 5648 5644 5641 5638 5635 5632 5629 5625 5621 5618 5614 5610 5606 5602 5598 5594 5589 5585 5580 5575 5570 5567 5564 5560 5557 5553 5548 5544 5540 5535 5530 5524 5519
5732 5731 5730 5728 5727 5726 5725 5724 5722 5721 5720 5718 5717 5715 5714 5713 5712 5711 5710 5709 5707 5706 5706 5704 5703 5702 5701 5699 5698 5696 5694 5692 5690 5688 5687 5685 5684 5682 5680 5677 5674 5672 5670 5668 5666 5663 5661 5658 5655 5651 5648 5644 5640 5636 5633 5630 5627 5624 5620 5616 5613 5610 5606 5603 5598 5594 5590 5586 5582 5578 5574 5569 5564 5559 5555 5552 5549 5545 5540 5537 5533 5528 5522 5517 5511
5725 5724 5723 5722 5721 5720 5718 5717 5716 5715 5713 5712 5711 5709 5708 5707 5706 5705 5704 5703 5701 5700 5699 5698 5697 5696 5694 5693 5691 5690 5688 5686 5684 5682 5680 5679 5677 5674 5672 5669 5667 5665 5663 5661 5659 5656 5653 5650 5647 5643 5640 5636 5632 5628 5624 5622 5619 5616 5612 5608 5605 5601 5598 5594 5590 5585 5581 5577 5574 5570 5567 5563 5557 5552 5547 5544 5540 5537 5533 5529 5525 5520 5515 5510 5504
5719 5718 5717 5716 5715 5714 5712 5711 5710 5709 5708 5706 5705 5704 5703 5702 5701 5699 5698 5697 5695 5694 5693 5692 5690 5689 5688 5686 5685 5683 5681 5679 5677 5675 5673 5671 5669 5667 5664 5662 5660 5659 5656 5654 5652 5649 5646 5642 5639 5635 5632 5627 5623 5619 5616 5613 5610 5607 5603 5599 5596 5593 5589 5585 5582 5577 5573 5569 5566 5563 5560 5557 5550 5544 5540 5536 5532 5529 5524 5520 5517 5511 5506 5503 5498
5713 5712 5710 5710 5709 5708 5707 5706 5705 5703 5702 5701 5700 5698 5697 5696 5695 5694 5692 5691 5689 5688 5686 5685 5684 5683 5682 5680 5678 5676 5674 5672 5670 5668 5666 5664 5662 5660 5658 5656 5654 5652 5649 5647 5644 5641 5638 5635 5631 5627 5623 5619 5614 5610 5607 5604 5601 5598 5594 5591 5588 5585 5581 5577 5573 5568 5563 5560 5558 5555 5553 5549 5543 5536 5532 5528 5524 5520 5516 5511 5508 5504 5498 5494 5489
5707 5706 5705 5704 5703 5702 5701 5700 5699 5698 5697 5696 5694 5693 5691 5690 5689 5688 5686 5685 5683 5682 5680 5679 5678 5677 5675 5674 5672 5670 5668 5665 5663 5662 5660 5657 5655 5653 5651 5650 5647 5645 5643 5640 5637 5634 5631 5627 5623 5619 5614 5610 5605 5601 5598 5594 5591 5589 5586 5583 5580 5576 5572 5568 5564 5559 5554 5551 5550 5547 5544 5541 5535 5528 5524 5520 5514 5511 5507 5502 5499 5495 5490 5485 5480
5700 5700 5699 5698 5697 5696 5695 5694 5693 5692 5691 5690 5689 5687 5686 5685 5683 5682 5680 5679 5678 5676 5674 5673 5672 5671 5669 5667 5665 5663 5661 5659 5657 5655 5653 5651 5649 5647 5645 5643 5641 5639 5636 5633 5630 5627 5624 5620 5615 5610 5605 5601 5597 5593 5589 5585 5582 5580 5577 5575 5571 5567 5563 5559 5555 5550 5544 5542 5541 5538 5534 5531 5526 5520 5515 5511 5505 5502 5499 5494 5490 5486 5480 5475 5470
5694 5693 5692 5691 5690 5690 5688 5687 5686 5685 5685 5684 5682 5681 5680 5679 5677 5676 5674 5673 5672 5670 5669 5667 5666 5664 5663 5662 5659 5657 5655 5652 5650 5648 5646 5645 5643 5641 5639 5636 5634 5632 5629 5626 5623 5619 5616 5611 5606 5602 5597 5592 5589 5585 5580 5577 5574 5571 5569 5566 5563 5559 5555 5550 5546 5541 5536 5533 5532 5529 5524 5519 5516 5511 5505 5500 5497 5493 5490 5485 5480 5476 5470 5465 5461
5687 5686 5686 5685 5683 5682 5681 5680 5679 5678 5677 5677 5676 5675 5673 5672 5671 5669 5668 5667 5665 5664 5663 5661 5659 5658 5656 5654 5652 5650 5648 5645 5643 5641 5640 5638 5636 5634 5631 5629 5626 5624 5621 5619 5615 5611 5607 5602 5597 5594 5590 5585 5581 5576 5571 5568 5565 5563 5560 5558 5555 5551 5547 5542 5538 5532 5526 5523 5522 5520 5515 5508 5505 5503 5496 5491 5488 5484 5480 5475 5470 5465 5461 5456 5452
5680 5679 5678 5677 5676 5675 5674 5673 5672 5671 5671 5670 5669 5668 5667 5666 5665 5663 5662 5660 5659 5658 5656 5655 5653 5652 5650 5647 5645 5643 5641 5639 5637 5635 5633 5631 5628 5626 5624 5621 5619 5617 5614 5611 5606 5602 5598 5593 5589 5586 5582 5577 5572 5567 5563 5559 5557 5554 5552 5549 5547 5544 5540 5536 5529 5522 5517 5514 5511 5509 5505 5499 5495 5493 5488 5482 5478 5473 5468 5464 5459 5455 5452 5448 5443
5673 5672 5671 5670 5669 5669 5668 5667 5666 5665 5665 5664 5663 5662 5661 5659 5658 5657 5655 5654 5652 5651 5649 5648 5647 5645 5643 5641 5638 5636 5634 5632 5630 5628 5625 5623 5620 5619 5616 5614 5613 5610 5607 5602 5598 5593 5588 5584 5580 5578 5574 5569 5564 5558 5553 5550 5548 5546 5544 5541 5538 5536 5533 5528 5521 5515 5509 5505 5501 5498 5496 5491 5487 5483 5478 5472 5467 5462 5457 5454 5450 5446 5442 5438 5434
5667 5666 5665 5664 5663 5662 5661 5660 5660 5659 5658 5657 5656 5655 5654 5653 5651 5650 5648 5647 5645 5643 5642 5641 5639 5638 5636 5634 5632 5630 5628 5625 5623 5620 5618 5615 5613 5611 5609 5607 5605 5602 5598 5593 5589 5584 5580 5575 5572 5569 5566 5561 5555 5549 5544 5541 5539 5537 5535 5532 5529 5527 5525 5519 5511 5506 5501 5497 5494 5491 5488 5484 5478 5473 5468 5461 5455 5451 5446 5444 5442 5437 5431 5427 5424
5660 5659 5658 5657 5656 5655 5655 5654 5653 5652 5651 5650 5649 5648 5647 5645 5644 5643 5641 5640 5638 5636 5635 5633 5632 5630 5629 5626 5625 5622 5619 5616 5614 5612 5609 5607 5605 5603 5601 5598 5596 5592 5588 5584 5580 5576 5572 5567 5563 5560 5557 5552 5546 5541 5536 5533 5531 5528 5525 5523 5520 5518 5515 5508 5500 5495 5492 5488 5486 5483 5479 5475 5469 5463 5459 5453 5447 5441 5436 5435 5434 5427 5421 5417 5414
5653 5652 5651 5650 5649 5648 5648 5647 5646 5645 5644 5643 5642 5641 5640 5638 5637 5636 5634 5632 5631 5629 5627 5626 5624 5622 5621 5618 5616 5614 5611 5608 5606 5604 5602 5599 5597 5595 5592 5590 5587 5583 5580 5576 5572 5568 5563 5558 5553 5550 5547 5543 5538 5533 5528 5524 5522 5519 5515 5513 5511 5508 5504 5496 5490 5487 5483 5478 5475 5471 5467 5463 5458 5453 5450 5446 5440 5432 5425 5425 5424 5418 5412 5408 5404
5646 5645 5644 5643 5642 5641 5640 5639 5638 5637 5636 5636 5635 5633 5632 5631 5630 5628 5627 5625 5623 5621 5620 5618 5616 5614 5612 5610 5608 5605 5602 5599 5597 5595 5593 5590 5588 5586 5583 5580 5578 5574 5571 5567 5563 5559 5554 5548 5544 5540 5538 5534 5530 5525 5520 5515 5512 5510 5505 5501 5500 5497 5492 5485 5481 5478 5474 5469 5465 5461 5456 5453 5448 5442 5439 5436 5430 5423 5414 5411 5411 5406 5401 5398 5393
5638 5637 5637 5636 5635 5634 5633 5632 5631 5631 5629 5628 5627 5626 5625 5624 5622 5620 5619 5617 5616 5614 5612 5610 5608 5606 5603 5601 5599 5596 5593 5590 5588 5585 5583 5580 5578 5575 5573 5570 5568 5564 5561 5558 5554 5550 5545 5540 5536 5532 5528 5525 5521 5516 5511 5506 5502 5499 5495 5490 5488 5485 5480 5475 5472 5468 5464 5461 5457 5452 5448 5445 5439 5434 5429 5424 5419 5413 5404 5398 5395 5392 5388 5385 5381
5631 5630 5629 5629 5627 5626 5626 5625 5624 5623 5622 5621 5620 5618 5617 5616 5614 5612 5610 5609 5607 5605 5603 5602 5599 5597 5595 5592 5590 5587 5584 5581 5578 5575 5573 5570 5567 5565 5563 5560 5557 5554 5552 5549 5545 5540 5537 5532 5528 5524 5520 5516 5511 5506 5501 5495 5490 5488 5485 5481 5477 5473 5469 5465 5463 5458 5454 5452 5448 5443 5439 5436 5431 5426 5420 5415 5409 5403 5394 5388 5384 5380 5376 5372 5368
5624 5623 5622 5621 5620 5619 5618 5618 5617 5616 5614 5613 5612 5610 5609 5607 5605 5603 5602 5600 5598 5596 5594 5593 5591 5588 5586 5584 5581 5578 5575 5572 5569 5566 5563 5560 5558 5555 5553 5550 5547 5545 5544 5541 5536 5532 5528 5524 5520 5515 5511 5506 5501 5496 5491 5486 5482 5479 5476 5472 5468 5464 5459 5455 5453 5448 5443 5441 5438 5433 5429 5424 5420 5415 5410 5405 5400 5393 5385 5378 5374 5370 5366 5361 5357
5616 5615 5614 5613 5613 5612 5611 5610 5609 5608 5606 5605 5604 5602 5600 5599 5597 5595 5593 5591 5589 5588 5586 5584 5582 5579 5577 5575 5572 5569 5566 5562 5559 5557 5554 5551 5549 5546 5544 5542 5539 5536 5535 5532 5527 5522 5518 5514 5510 5506 5501 5497 5492 5488 5484 5479 5475 5471 5468 5463 5459 5455 5449 5445 5442 5437 5432 5429 5427 5423 5419 5413 5408 5404 5400 5395 5389 5383 5376 5370 5365 5361 5355 5351 5347
5607 5607 5606 5605 5604 5603 5602 5602 5600 5599 5598 5597 5595 5593 5592 5590 5588 5586 5584 5582 5581 5579 5577 5575 5572 5570 5567 5565 5562 5559 5556 5553 5551 5548 5546 5543 5541 5538 5535 5533 5530 5527 5525 5521 5517 5512 5508 5504 5500 5496 5492 5488 5485 5481 5477 5472 5468 5463 5459 5455 5450 5445 5439 5434 5430 5425 5419 5415 5412 5409 5406 5402 5396 5391 5387 5383 5377 5371 5365 5360 5355 5351 5345 5340 5337
5599 5599 5598 5597 5596 5595 5594 5593 5592 5590 5589 5587 5586 5584 5582 5581 5579 5577 5575 5573 5571 5569 5566 5564 5562 5560 5557 5555 5552 5550 5547 5545 5542 5540 5537 5534 5531 5529 5526 5523 5519 5516 5514 5510 5506 5502 5499 5495 5491 5488 5484 5481 5477 5473 5469 5465 5460 5455 5450 5445 5440 5435 5429 5423 5418 5412 5407 5403 5399 5394 5390 5388 5383 5377 5373 5370 5365 5360 5354 5349 5345 5341 5335 5331 5327
5590 5590 5589 5588 5588 5586 5585 5584 5583 5581 5580 5578 5577 5575 5573 5571 5569 5567 5565 5563 5561 5559 5556 5554 5552 5550 5547 5545 5543 5540 5538 5536 5534 5532 5528 5525 5522 5519 5516 5512 5509 5506 5503 5500 5496 5493 5490 5486 5483 5479 5476 5472 5469 5465 5461 5456 5451 5446 5440 5435 5429 5423 5418 5412 5406 5401 5396 5391 5387 5381 5377 5372 5368 5363 5359 5355 5352 5348 5343 5338 5334 5330 5326 5321 5318
5581 5581 5580 5579 5579 5577 5576 5575 5573 5572 5570 5569 5567 5565 5564 5562 5560 5557 5556 5553 5551 5549 5547 5544 5542 5540 5538 5536 5533 5531 5529 5527 5525 5522 5519 5516 5512 5509 5506 5502 5499 5496 5493 5491 5488 5485 5482 5478 5474 5471 5467 5463 5459 5455 5451 5446 5441 5436 5430 5424 5418 5413 5407 5401 5394 5388 5383 5378 5373 5368 5364 5359 5354 5351 5347 5342 5339 5336 5331 5326 5322 5319 5316 5311 5308
5573 5572 5571 5570 5569 5568 5567 5566 5564 5563 5562 5560 5558 5556 5554 5552 5550 5548 5546 5544 5542 5540 5538 5536 5533 5531 5529 5526 5524 5521 5519 5517 5515 5512 5509 5506 5503 5499 5496 5493 5490 5487 5485 5482 5479 5477 5473 5469 5465 5461 5457 5453 5449 5445 5440 5435 5430 5425 5419 5413 5407 5402 5396 5390 5384 5377 5371 5364 5359 5355 5350 5345 5341 5338 5334 5330 5326 5323 5319 5314 5311 5308 5305 5301 5298
5564 5563 5562 5561 5560 5559 5558 5557 5556 5555 5553 5551 5549 5547 5546 5544 5541 5539 5538 5536 5534 5532 5529 5527 5524 5522 5520 5517 5514 5512 5510 5508 5505 5502 5499 5497 5494 5490 5488 5485 5482 5479 5476 5473 5471 5468 5464 5460 5456 5452 5448 5443 5439 5434 5429 5425 5420 5415 5409 5403 5396 5390 5385 5379 5372 5366 5360 5353 5347 5342 5337 5332 5328 5325 5321 5317 5314 5311 5307 5303 5299 5296 5293 5290 5288
5555 5554 5553 5552 5551 5551 5550 5549 5548 5546 5544 5543 5541 5539 5537 5535 5533 5531 5529 5527 5525 5523 5520 5518 5515 5513 5511 5508 5505 5503 5500 5498 5496 5493 5490 5488 5485 5482 5479 5476 5473 5470 5467 5464 5462 5459 5455 5451 5447 5443 5439 5434 5430 5426 5420 5415 5411 5406 5400 5394 5387 5381 5374 5368 5361 5354 5348 5342 5335 5330 5325 5321 5316 5313 5309 5305 5301 5298 5295 5292 5288 5285 5282 5279 5277
5546 5545 5545 5544 5543 5543 5542 5540 5539 5537 5535 5533 5532 5530 5528 5526 5524 5522 5520 5518 5515 5513 5511 5509 5506 5504 5502 5499 5496 5494 5491 5489 5487 5484 5482 5479 5476 5473 5471 5468 5465 5462 5459 5455 5453 5450 5447 5443 5439 5434 5430 5426 5422 5417 5412 5407 5402 5396 5390 5384 5377 5370 5363 5357 5350 5343 5337 5332 5325 5319 5313 5309 5304 5300 5296 5293 5289 5287 5284 5281 5277 5274 5271 5269 5267
5538 5537 5537 5536 5535 5534 5533 5531 5530 5528 5526 5524 5522 5521 5519 5516 5514 5513 5511 5509 5506 5504 5502 5500 5498 5495 5493 5491 5488 5485 5483 5480 5478 5475 5473 5470 5468 5465 5462 5460 5457 5454 5450 5447 5444 5441 5438 5434 5430 5426 5422 5417 5413 5408 5402 5397 5391 5385 5379 5373 5367 5360 5352 5345 5339 5333 5327 5321 5315 5309 5303 5297 5292 5288 5284 5280 5277 5275 5272 5270 5266 5263 5261 5258 5256
5530 5529 5529 5528 5527 5526 5524 5523 5521 5519 5517 5515 5513 5511 5509 5507 5505 5503 5501 5499 5497 5495 5493 5491 5489 5487 5484 5482 5479 5477 5474 5472 5470 5467 5465 5462 5459 5457 5454 5451 5448 5445 5442 5438 5434 5431 5427 5424 5420 5415 5411 5406 5402 5397 5391 5385 5380 5374 5367 5361 5354 5348 5341 5333 5327 5322 5316 5310 5304 5298 5292 5286 5281 5277 5273 5269 5266 5263 5260 5258 5255 5252 5250 5248 5246
5522 5521 5520 5519 5518 5517 5515 5514 5512 5510 5508 5506 5504 5502 5500 5497 5496 5494 5492 5490 5488 5486 5484 5482 5480 5478 5476 5473 5471 5469 5466 5464 5462 5459 5457 5454 5451 5448 5446 5442 5439 5436 5433 5429 5425 5422 5418 5414 5409 5404 5400 5395 5390 5385 5379 5373 5367 5361 5355 5348 5341 5335 5328 5322 5316 5310 5305 5299 5293 5287 5281 5276 5271 5266 5262 5258 5255 5252 5249 5247 5244 5242 5240 5237 5235
5514 5513 5511 5510 5509 5508 5506 5504 5503 5501 5499 5497 5495 5493 5490 5488 5487 5485 5483 5481 5479 5477 5475 5473 5471 5469 5467 5465 5462 5460 5458 5456 5453 5451 5448 5446 5442 5440 5437 5434 5430 5427 5424 5420 5416 5412 5408 5404 5399 5394 5389 5384 5378 5373 5367 5361 5355 5349 5342 5336 5329 5323 5317 5311 5305 5299 5294 5288 5282 5277 5271 5265 5260 5256 5252 5248 5245 5242 5239 5237 5234 5232 5229 5227 5224
5505 5504 5502 5501 5500 5498 5497 5495 5493 5492 5489 5488 5486 5484 5482 5480 5478 5476 5474 5472 5470 5468 5466 5464 5462 5460 5458 5456 5454 5452 5450 5448 5445 5443 5440 5437 5434 5431 5428 5425 5422 5418 5415 5411 5407 5402 5398 5394 5389 5384 5379 5374 5368 5362 5356 5350 5344 5337 5330 5324 5318 5312 5306 5300 5294 5288 5283 5277 5272 5266 5261 5256 5251 5247 5243 5240 5236 5233 5230 5227 5225 5222 5220 5217 5214
5496 5495 5493 5492 5490 5489 5488 5486 5484 5482 5481 5479 5477 5475 5473 5471 5469 5468 5466 5464 5462 5460 5458 5456 5454 5451 5449 5447 5445 5443 5442 5439 5437 5434 5432 5429 5426 5423 5419 5416 5413 5410 5406 5402 5398 5393 5389 5384 5380 5374 5369 5363 5357 5351 5345 5339 5332 5326 5319 5313 5307 5301 5295 5289 5284 5278 5272 5267 5262 5256 5251 5246 5242 5238 5235 5231 5228 5225 5222 5219 5216 5214 5211 5208 5205
5487 5486 5484 5483 5481 5480 5478 5477 5475 5474 5472 5470 5468 5466 5464 5463 5461 5459 5457 5456 5454 5452 5450 5448 5445 5443 5441 5439 5437 5435 5433 5431 5429 5426 5423 5420 5417 5414 5411 5408 5405 5401 5397 5394 5389 5385 5380 5375 5370 5365 5359 5354 5348 5341 5335 5328 5322 5315 5309 5302 5296 5290 5285 5279 5273 5267 5262 5257 5252 5247 5242 5238 5234 5230 5226 5223 5220 5217 5214 5211 5208 5206 5203 5200 5197
5478 5477 5475 5474 5473 5471 5470 5468 5467 5465 5463 5461 5459 5457 5455 5454 5452 5450 5449 5447 5446 5444 5442 5440 5437 5435 5433 5430 5429 5427 5425 5422 5420 5417 5414 5412 5409 5406 5403 5400 5396 5393 5389 5385 5380 5376 5371 5366 5361 5355 5350 5344 5338 5332 5325 5319 5312 5305 5299 5293 5287 5280 5275 5269 5264 5258 5252 5247 5242 5238 5234 5230 5226 5222 5219 5215 5213 5210 5206 5203 5201 5198 5195 5193 5190
5470 5468 5467 5466 5464 5463 5461 5460 5458 5456 5454 5452 5450 5449 5447 5445 5444 5442 5440 5439 5437 5436 5434 5432 5430 5427 5425 5422 5420 5418 5416 5414 5411 5409 5406 5403 5401 5397 5394 5391 5387 5384 5380 5375 5371 5366 5361 5356 5351 5346 5340 5334 5328 5322 5316 5309 5303 5297 5290 5284 5277 5271 5265 5260 5255 5249 5244 5239 5234 5230 5226 5223 5219 5216 5212 5209 5206 5203 5200 5197 5194 5191 5188 5185 5182
5461 5460 5458 5457 5456 5454 5453 5451 5449 5447 5445 5444 5442 5441 5439 5437 5436 5434 5432 5431 5429 5427 5425 5423 5421 5419 5417 5414 5412 5410 5408 5405 5403 5400 5397 5394 5391 5388 5385 5381 5377 5374 5370 5365 5361 5357 5352 5347 5342 5336 5330 5325 5319 5312 5306 5300 5294 5288 5281 5275 5269 5263 5257 5252 5247 5242 5237 5232 5228 5224 5220 5217 5213 5210 5206 5202 5199 5196 5193 5190 5187 5184 5181 5178 5174
5453 5451 5450 5449 5447 5446 5444 5442 5441 5439 5437 5436 5434 5433 5431 5430 5428 5426 5424 5422 5420 5418 5417 5415 5413 5411 5409 5406 5404 5401 5399 5397 5394 5391 5388 5385 5382 5379 5375 5371 5368 5364 5360 5355 5351 5347 5342 5337 5332 5326 5321 5315 5309 5303 5297 5291 5285 5279 5272 5266 5260 5254 5249 5244 5239 5234 5230 5226 5222 5218 5215 5211 5208 5204 5200 5197 5193 5190 5187 5184 5181 5178 5175 5171 5167
5445 5444 5442 5441 5439 5438 5436 5435 5433 5432 5430 5429 5427 5425 5423 5422 5420 5418 5416 5414 5412 5410 5408 5406 5404 5402 5400 5398 5396 5393 5391 5388 5385 5383 5380 5376 5373 5369 5366 5362 5358 5354 5350 5346 5342 5337 5332 5327 5322 5317 5311 5306 5300 5294 5288 5282 5276 5269 5263 5258 5252 5246 5241 5236 5231 5227 5223 5220 5216 5212 5209 5205 5202 5198 5194 5191 5188 5185 5182 5179 5176 5172 5168 5165 5161
5438 5436 5435 5433 5432 5430 5429 5427 5426 5424 5423 5421 5419 5417 5415 5413 5411 5409 5407 5405 5404 5402 5400 5398 5396 5394 5392 5389 5387 5385 5382 5380 5377 5374 5371 5367 5364 5361 5357 5353 5349 5345 5341 5337 5332 5328 5323 5318 5312 5307 5302 5296 5291 5285 5279 5273 5267 5261 5255 5249 5244 5239 5234 5229 5225 5221 5218 5214 5210 5206 5203 5199 5196 5192 5189 5186 5183 5180 5177 5174 5170 5166 5162 5158 5154
5430 5429 5427 5426 5424 5423 5421 5420 5418 5416 5415 5413 5411 5409 5407 5405 5403 5401 5399 5397 5395 5394 5392 5390 5388 5386 5383 5381 5378 5376 5373 5370 5368 5365 5362 5358 5355 5352 5348 5344 5340 5336 5332 5328 5324 5319 5314 5309 5303 5298 5292 5287 5281 5276 5270 5265 5259 5253 5247 5242 5237 5232 5228 5223 5219 5215 5212 5208 5205 5201 5197 5194 5191 5188 5185 5182 5179 5176 5173 5169 5165 5161 5157 5152 5148
5422 5421 5420 5418 5416 5415 5413 5411 5410 5408 5406 5404 5402 5400 5398 5396 5394 5392 5391 5389 5387 5385 5383 5382 5379 5377 5374 5372 5369 5367 5364 5361 5358 5355 5352 5349 5346 5342 5338 5334 5330 5326 5323 5319 5314 5310 5305 5300 5294 5289 5283 5277 5272 5267 5262 5257 5251 5245 5240 5235 5230 5226 5221 5217 5213 5210 5207 5203 5200 5196 5192 5189 5186 5184 5181 5178 5175 5172 5169 5165 5161 5156 5152 5147 5142
5414 5413 5411 5410 5408 5406 5405 5403 5401 5399 5397 5395 5393 5391 5389 5387 5386 5384 5382 5381 5379 5377 5375 5373 5371 5368 5366 5363 5360 5357 5354 5351 5348 5346 5343 5340 5336 5333 5329 5325 5321 5316 5312 5308 5304 5300 5295 5290 5285 5280 5274 5268 5263 5258 5253 5249 5244 5238 5233 5229 5224 5220 5216 5212 5208 5205 5202 5199 5195 5192 5188 5185 5182 5180 5177 5174 5171 5168 5165 5161 5156 5152 5147 5143 5138
5406 5404 5403 5401 5399 5397 5396 5394 5392 5390 5388 5386 5384 5382 5381 5379 5377 5376 5374 5372 5370 5368 5366 5364 5361 5359 5356 5353 5351 5348 5345 5342 5339 5336 5333 5330 5327 5323 5319 5315 5311 5306 5302 5297 5293 5289 5285 5280 5275 5270 5265 5259 5254 5249 5244 5240 5236 5231 5227 5223 5219 5214 5210 5206 5203 5200 5197 5194 5191 5188 5184 5181 5178 5176 5173 5170 5167 5164 5161 5157 5153 5149 5144 5139 5135
5397 5395 5394 5392 5390 5388 5386 5384 5383 5381 5379 5377 5375 5374 5372 5370 5369 5367 5365 5363 5361 5359 5357 5355 5352 5349 5347 5344 5341 5338 5335 5332 5329 5326 5322 5319 5316 5313 5309 5304 5300 5296 5291 5287 5282 5279 5275 5270 5266 5261 5256 5250 5245 5240 5236 5232 5228 5223 5220 5216 5213 5209 5205 5202 5198 5196 5193 5190 5187 5184 5181 5178 5175 5172 5169 5167 5164 5161 5158 5154 5150 5146 5141 5137 5133
5388 5386 5384 5382 5380 5379 5377 5375 5373 5372 5370 5368 5367 5365 5363 5362 5360 5358 5356 5354 5352 5350 5348 5345 5343 5340 5337 5334 5331 5328 5325 5321 5318 5315 5312 5309 5305 5302 5298 5293 5289 5285 5280 5276 5272 5268 5264 5260 5256 5251 5247 5242 5237 5232 5228 5224 5220 5216 5213 5210 5207 5204 5200 5197 5194 5191 5188 5185 5182 5180 5177 5174 5171 5168 5166 5163 5161 5158 5155 5151 5148 5144 5140 5136 5132
5378 5376 5374 5373 5371 5369 5368 5366 5364 5363 5361 5359 5358 5356 5355 5353 5351 5349 5347 5345 5343 5341 5338 5336 5333 5330 5327 5324 5321 5317 5314 5311 5307 5304 5301 5297 5294 5290 5287 5282 5278 5274 5270 5265 5261 5257 5254 5250 5246 5242 5237 5233 5229 5224 5220 5216 5212 5209 5206 5203 5200 5198 5195 5192 5189 5186 5183 5181 5178 5175 5173 5171 5168 5165 5162 5160 5157 5155 5152 5149 5146 5142 5139 5135 5131